Location: Bogotá
(4.6533°N, 74.0837°W)
Time: 11:57:15
(UTC+00:00)

ISS - Pass Details

Date: 06 March 2026
Orbit: 416 x 427 km, 51.6° (Epoch: 6 March)

Event Time Altitude Azimuth Distance (km) Brightness Sun altitude
Rises 10:36:37 0° 354° (N) 2,336 -0.1 -8.1°
Reaches altitude 10° 10:39:40 10° 25° (NNE) 1,476 -0.7 -7.4°
Maximum altitude 10:41:10 13° 53° (NE) 1,334 -0.5 -7.0°
Drops below altitude 10° 10:42:40 10° 80° (E) 1,478 0.5 -6.6°
Sets 10:45:43 0° 110° (ESE) 2,343 1.9 -5.9°
